Date String (YYYY-MM-DD hh:mm:ss) UTC,Instrument flags,Ambient pressure (hPa),Sample flow (lpm),Bypass flow (lpm),Sample temperature (°C),Ambient temperature (°C),ASC tube jacket temperature (°C),LED temperature (°C),Box temperature (°C),Sample RH (%),Span deviation,Mass concentration (μg/m³),Mass concentration (μg/m³),Mass concentration (μg/m³)
DateTimeUTC,F1_M11,P_M11,Q1_M11,Q2_M11,T1_M11,T2_M11,T3_M11,T4_M11,T5_M11,U1_M11,ZSPAN_M11,X0_M11,X2_M11,X1_M11
2022-03-15 14:00:00,,0828.9,5.00,0.00,22.4,21.7,00.0,31.4,24.2,10.1,0000.0,0008.99,0003.53,0002.59
2022-03-15 14:01:00,,0829.1,5.00,0.00,22.4,21.7,00.0,31.4,24.2,10.0,0000.0,0009.00,0003.54,0002.62
2022-03-15 14:02:00,,0829.1,5.00,0.00,22.4,21.7,00.0,31.4,24.3,10.0,0000.0,0008.98,0003.57,0002.64
2022-03-15 14:03:00,,0829.1,5.00,0.00,22.5,21.7,00.0,31.4,24.3,10.0,0000.0,0008.85,0003.52,0002.64
2022-03-15 14:04:00,,0828.8,5.00,0.00,22.4,21.7,00.0,31.4,24.3,09.8,0000.0,0008.68,0003.45,0002.63
2022-03-15 14:05:00,,0828.7,5.00,0.00,22.4,21.7,00.0,31.4,24.2,09.8,0000.0,0008.94,0003.45,0002.63
2022-03-15 14:06:00,,0828.8,4.99,0.00,22.4,21.7,00.0,31.4,24.2,09.8,0000.0,0008.30,0003.46,0002.63
2022-03-15 14:07:00,,0829.0,5.00,0.00,22.4,21.7,00.0,31.4,24.2,09.9,0000.0,0008.09,0003.43,0002.64
2022-03-15 14:08:00,,0828.7,5.01,0.00,22.4,21.6,00.0,31.4,24.2,09.7,0000.0,0008.09,0003.42,0002.66
2022-03-15 14:09:00,,0828.6,5.00,0.00,22.4,21.6,00.0,31.4,24.1,09.6,0000.0,0008.23,0003.38,0002.65
2022-03-15 14:10:00,,0828.7,5.00,0.00,22.4,21.6,00.0,31.4,24.1,09.7,0000.0,0008.41,0003.36,0002.66
2022-03-15 14:11:00,,0828.7,5.00,0.00,22.3,21.6,00.0,31.4,24.1,09.6,0000.0,0008.13,0003.35,0002.65
2022-03-15 14:12:00,,0828.7,5.00,0.00,22.3,21.5,00.0,31.4,24.1,09.5,0000.0,0008.09,0003.33,0002.63
2022-03-15 14:13:00,,0828.7,5.00,0.00,22.3,21.5,00.0,31.4,24.0,09.6,0000.0,0008.07,0003.27,0002.59
2022-03-15 14:14:00,,0828.6,5.00,0.00,22.3,21.5,00.0,31.3,24.0,09.6,0000.0,0008.37,0003.27,0002.57
2022-03-15 14:15:00,,0828.7,4.98,0.00,22.3,21.5,00.0,31.3,24.0,09.6,0000.0,0008.44,0003.29,0002.56
2022-03-15 14:16:00,,0828.7,5.00,0.00,22.3,21.5,00.0,31.3,24.0,09.6,0000.0,0008.24,0003.31,0002.55
2022-03-15 14:17:00,,0828.7,4.99,0.00,22.3,21.5,00.0,31.3,24.0,09.6,0000.0,0007.49,0003.29,0002.54
2022-03-15 14:18:00,,0828.7,5.00,0.00,22.3,21.5,00.0,31.3,24.0,09.7,0000.0,0007.51,0003.30,0002.54
2022-03-15 14:19:00,,0828.6,5.00,0.00,22.2,21.5,00.0,31.3,24.0,09.7,0000.0,0007.51,0003.30,0002.52
2022-03-15 14:20:00,,0828.7,5.00,0.00,22.3,22.0,00.0,31.3,24.1,09.7,0000.0,0007.08,0003.32,0002.52
2022-03-15 14:21:00,,0828.6,5.00,0.00,22.4,22.8,00.0,31.4,24.4,09.7,0000.0,0006.53,0003.32,0002.51
2022-03-15 14:22:00,,0828.7,5.00,0.00,22.6,23.0,00.0,31.4,24.6,09.7,0000.0,0006.52,0003.33,0002.52
2022-03-15 14:23:00,,0828.6,5.00,0.00,22.6,22.9,00.0,31.4,24.6,09.7,0000.0,0007.45,0003.36,0002.54
2022-03-15 14:24:00,,0828.7,4.99,0.00,22.7,22.8,00.0,31.4,24.6,09.9,0000.0,0007.45,0003.42,0002.58
2022-03-15 14:25:00,,0828.6,5.01,0.00,22.7,22.7,00.0,31.5,24.7,09.7,0000.0,0006.95,0003.39,0002.58
2022-03-15 14:26:00,,0828.6,4.99,0.00,22.7,22.5,00.0,31.5,24.6,09.5,0000.0,0006.89,0003.37,0002.57
2022-03-15 14:27:00,,0828.6,5.00,0.00,22.7,22.5,00.0,31.5,24.7,09.6,0000.0,0006.86,0003.36,0002.57
2022-03-15 14:28:00,,0828.7,5.00,0.00,22.8,22.4,00.0,31.5,24.7,09.7,0000.0,0006.95,0003.35,0002.57
2022-03-15 14:29:00,,0828.7,4.99,0.00,22.8,22.4,00.0,31.5,24.6,10.0,0000.0,0007.17,0003.37,0002.56
2022-03-15 14:30:00,,0828.7,5.00,0.00,22.8,22.3,00.0,31.6,24.7,10.2,0000.0,0007.96,0003.38,0002.57
2022-03-15 14:31:00,,0828.6,5.00,0.00,22.8,22.3,00.0,31.6,24.7,10.1,0000.0,0008.25,0003.37,0002.57
2022-03-15 14:32:00,,0828.8,5.00,0.00,22.8,22.3,00.0,31.6,24.7,10.0,0000.0,0008.31,0003.38,0002.58
2022-03-15 14:33:00,,0828.9,5.00,0.00,22.8,22.3,00.0,31.6,24.7,09.8,0000.0,0008.32,0003.38,0002.56
2022-03-15 14:34:00,,0829.0,5.01,0.00,22.8,22.2,00.0,31.6,24.7,09.8,0000.0,0008.61,0003.41,0002.57
2022-03-15 14:35:00,,0828.9,5.00,0.00,22.8,22.2,00.0,31.6,24.7,10.6,0000.0,0009.23,0003.42,0002.55
2022-03-15 14:36:00,,0828.6,5.00,0.00,22.8,22.2,00.0,31.7,24.7,10.8,0000.0,0009.95,0003.44,0002.54
2022-03-15 14:37:00,,0828.5,4.99,0.00,22.8,22.2,00.0,31.7,24.6,10.6,0000.0,0010.02,0003.45,0002.53
2022-03-15 14:38:00,,0828.7,5.00,0.00,22.8,22.1,00.0,31.7,24.5,11.0,0000.0,0009.98,0003.42,0002.51
2022-03-15 14:39:00,,0828.8,5.01,0.00,22.7,22.1,00.0,31.7,24.5,11.6,0000.0,0009.98,0003.41,0002.47
2022-03-15 14:40:00,,0828.6,4.99,0.00,22.7,22.0,00.0,31.7,24.5,11.2,0000.0,0010.20,0003.39,0002.46
2022-03-15 14:41:00,,0828.6,4.99,0.00,22.7,22.0,00.0,31.7,24.5,10.7,0000.0,0009.57,0003.36,0002.45
2022-03-15 14:42:00,,0828.8,5.00,0.00,22.7,22.0,00.0,31.7,24.5,10.1,0000.0,0009.16,0003.35,0002.42
2022-03-15 14:43:00,,0829.1,5.00,0.00,22.7,22.0,00.0,31.7,24.5,09.6,0000.0,0008.92,0003.31,0002.37
2022-03-15 14:44:00,,0828.8,5.00,0.00,22.7,22.0,00.0,31.7,24.6,09.4,0000.0,0008.82,0003.26,0002.33
2022-03-15 14:45:00,,0829.0,5.00,0.00,22.7,22.1,00.0,31.7,24.6,09.4,0000.0,0008.33,0003.20,0002.28
2022-03-15 14:46:00,,0829.0,5.00,0.00,22.8,22.1,00.0,31.7,24.6,09.9,0000.0,0007.58,0003.16,0002.25
2022-03-15 14:47:00,,0829.0,5.00,0.00,22.8,22.1,00.0,31.7,24.6,09.8,0000.0,0006.32,0003.11,0002.23
2022-03-15 14:48:00,,0828.5,5.00,0.00,22.8,22.1,00.0,31.7,24.6,09.5,0000.0,0005.97,0003.10,0002.20
2022-03-15 14:49:00,,0828.8,5.01,0.00,22.8,22.1,00.0,31.7,24.6,09.6,0000.0,0006.09,0003.12,0002.18
2022-03-15 14:50:00,,0829.0,5.00,0.00,22.8,22.1,00.0,31.7,24.6,10.4,0000.0,0006.05,0003.11,0002.17
2022-03-15 14:51:00,,0828.6,5.00,0.00,22.8,22.1,00.0,31.7,24.6,10.2,0000.0,0005.54,0003.12,0002.15
2022-03-15 14:52:00,,0828.5,5.01,0.00,22.8,22.2,00.0,31.7,24.7,10.3,0000.0,0005.37,0003.12,0002.13
2022-03-15 14:53:00,,0828.6,5.00,0.00,22.8,22.2,00.0,31.7,24.6,10.7,0000.0,0005.72,0003.12,0002.11
2022-03-15 14:54:00,,0828.8,5.00,0.00,22.8,22.2,00.0,31.7,24.7,10.9,0000.0,0007.01,0003.13,0002.12
2022-03-15 14:55:00,,0828.7,4.99,0.00,22.9,22.2,00.0,31.7,24.7,11.2,0000.0,0007.23,0003.17,0002.14
2022-03-15 14:56:00,,0829.2,5.00,0.00,22.9,22.2,00.0,31.7,24.7,10.8,0000.0,0007.10,0003.18,0002.15
2022-03-15 14:57:00,,0828.7,5.01,0.00,22.9,22.2,00.0,31.7,24.7,10.1,0000.0,0006.93,0003.16,0002.16
2022-03-15 14:58:00,,0828.8,5.00,0.00,22.9,22.2,00.0,31.8,24.7,10.0,0000.0,0007.06,0003.17,0002.16
2022-03-15 14:59:00,,0828.7,5.00,0.00,22.9,22.2,00.0,31.8,24.7,10.0,0000.0,0006.95,0003.16,0002.16
